Wind_Speed
7 8 9 9 9 10 11 11 11 11 11 12 13 13 14 14 14 14 13 14 14 15 14 14 14 14 14 13 12 11 11 11 10 9 9 8 8 8 8 7 6 5 5 5
7 7 8 9 9 9 10 10 10 10 11 11 11 12 13 14 14 14 14 14 15 15 15 14 14 14 14 14 13 12 12 12 11 10 9 8 8 8 8 7 7 6 6 6
7 8 8 9 9 8 9 10 11 11 11 11 11 12 13 13 14 14 14 14 15 15 15 14 14 14 14 14 13 13 12 12 11 10 9 9 9 9 8 8 7 7 7 7
8 8 9 9 9 9 9 10 11 11 11 11 11 12 13 13 13 13 14 15 15 15 15 15 15 15 14 14 14 13 12 12 12 11 10 10 10 9 9 8 8 8 7 7
7 8 9 8 9 10 10 10 10 10 11 11 11 12 12 12 13 13 15 15 15 15 15 15 15 15 15 14 14 14 13 13 12 11 11 10 10 10 10 9 9 8 8 8
7 7 8 8 8 9 10 9 9 9 10 11 11 11 11 12 12 13 13 14 14 15 15 16 16 15 15 14 14 13 13 12 12 11 11 11 10 10 10 10 9 9 9 9
6 7 7 7 7 7 8 8 8 9 9 9 10 11 11 12 12 12 12 13 14 14 15 16 16 15 14 14 13 13 13 12 11 11 11 11 11 11 11 10 10 10 9 10
6 7 7 7 7 7 8 9 9 10 9 9 9 10 10 11 11 11 12 13 14 14 14 14 14 15 14 13 13 12 12 12 12 12 11 11 11 11 11 11 10 10 10 11
8 7 7 8 8 8 8 9 10 11 10 9 9 9 9 10 10 10 10 12 12 13 13 13 13 13 13 13 13 12 12 12 12 12 12 12 12 12 11 11 11 11 12 12
9 9 8 8 9 9 8 8 9 11 11 10 8 6 7 8 8 9 9 10 11 11 12 13 13 13 13 13 13 13 13 13 13 12 12 12 12 12 11 11 12 12 12 12
9 10 9 9 9 9 8 8 9 10 11 10 9 8 7 8 9 9 9 10 11 11 12 13 13 13 13 13 13 13 13 13 13 12 13 13 13 12 12 12 12 12 12 12
10 10 10 10 9 9 9 9 8 9 9 9 9 8 8 8 9 9 10 10 11 12 13 13 13 13 13 13 13 13 14 14 13 13 14 14 13 13 13 13 13 13 13 13
11 11 10 10 10 10 10 9 9 10 10 10 10 9 9 9 9 10 10 11 12 12 13 14 13 13 13 13 14 14 14 14 15 14 14 14 13 13 13 13 14 14 14 14
12 12 11 12 12 12 11 11 11 11 12 11 10 10 9 9 9 10 10 11 12 12 13 13 13 13 14 14 14 14 14 14 14 14 15 15 14 14 15 15 15 16 16 16
14 14 13 13 13 13 12 12 12 12 12 12 12 11 11 10 10 10 11 11 11 12 13 14 14 14 15 15 15 15 15 15 15 15 15 15 16 16 16 16 16 17 17 17
16 16 15 15 15 14 13 13 14 13 12 12 12 12 12 11 11 11 11 11 12 12 13 14 15 15 15 15 16 15 15 15 16 16 16 16 17 17 17 17 17 17 17 17
17 17 17 17 16 16 15 13 14 14 13 13 12 11 12 12 12 12 11 12 12 13 14 15 15 15 14 14 14 14 15 15 15 16 16 16 17 17 17 17 17 18 18 18
18 18 17 18 17 18 15 14 14 14 14 13 12 11 12 12 12 12 12 12 12 13 14 14 14 14 14 14 14 15 16 16 16 16 16 17 17 17 17 17 18 18 19 19
19 19 19 19 19 18 17 15 15 15 14 14 13 12 12 12 12 12 13 13 13 14 14 14 14 14 14 15 15 16 17 17 17 17 17 18 18 18 18 18 19 19 19 19
20 20 20 20 20 20 18 17 17 16 16 15 14 13 13 13 13 13 14 14 14 15 15 15 15 15 16 16 16 16 16 17 17 17 18 19 19 19 19 19 19 19 19 19
19 20 21 21 22 21 20 19 18 18 16 16 16 15 15 15 14 14 14 15 15 15 16 16 16 16 17 17 16 17 17 17 17 17 18 19 19 19 19 19 19 19 19 20
21 21 21 21 22 21 21 20 19 19 18 17 17 16 16 16 16 15 15 15 15 16 16 16 17 17 17 18 18 17 17 18 18 18 19 19 20 19 19 20 20 20 20 21
22 22 22 22 22 21 21 21 20 20 19 18 18 17 17 17 17 17 17 16 16 17 16 17 17 17 18 18 19 19 19 19 19 20 20 21 21 21 21 21 22 22 22 22
23 23 23 23 23 22 22 22 21 21 20 19 19 18 18 18 18 18 18 17 17 18 18 18 18 18 19 20 21 21 21 21 22 22 22 22 22 22 22 23 23 24 24 24
24 24 24 24 24 23 22 22 22 21 21 20 20 19 19 19 18 18 19 19 19 19 19 19 19 19 20 21 22 22 23 23 23 24 24 24 23 23 23 24 24 25 25 25
25 25 25 25 25 25 23 22 22 22 22 21 21 20 20 20 19 19 20 20 20 20 20 20 20 19 20 20 21 22 23 24 24 24 24 24 24 24 24 25 26 26 27 27
Wind_Direction
230 226 225 220 215 214 215 220 224 225 224 225 228 232 232 234 235 233 235 236 234 234 234 234 234 236 237 236 235 233 235 242 248 254 260 267 264 260 258 259 269 277 282 287
228 227 222 215 216 219 218 217 222 224 223 225 232 235 235 239 238 238 238 237 233 235 235 235 236 236 237 237 235 237 240 244 249 253 259 266 267 260 257 261 266 272 281 290
221 218 217 220 221 218 217 217 223 228 230 232 235 237 241 243 243 239 237 238 237 238 237 237 237 236 238 237 236 238 241 246 249 255 259 261 263 262 255 259 264 270 279 288
221 220 218 222 224 223 222 222 226 229 232 234 238 239 242 247 246 241 239 238 237 236 238 237 238 240 240 239 238 239 242 246 250 253 255 257 259 256 254 256 260 267 276 283
222 223 221 224 227 225 225 228 230 233 235 241 245 246 240 243 246 243 237 235 236 236 239 240 239 240 238 240 241 242 244 248 251 252 251 254 255 254 254 253 258 265 270 277
230 228 227 227 232 230 229 229 232 236 238 241 242 246 238 243 244 242 236 235 237 240 241 241 239 238 238 240 242 244 247 250 252 251 250 250 252 253 255 254 258 262 265 270
232 235 235 229 230 232 229 230 235 238 242 253 249 249 246 243 244 240 240 239 240 240 240 240 239 238 238 239 242 245 248 251 252 253 251 251 252 254 255 256 258 261 265 270
237 236 238 233 231 234 237 235 238 245 252 255 253 254 248 244 244 242 244 243 242 241 238 236 236 236 237 239 242 245 248 249 250 251 253 253 254 255 256 256 257 260 265 271
238 237 239 236 234 232 236 238 238 245 249 253 257 253 251 244 243 245 247 243 243 242 235 234 235 235 236 240 243 246 247 249 250 251 252 254 256 256 256 257 259 264 269 272
236 238 238 236 236 235 240 240 238 243 247 252 256 250 245 244 246 246 247 243 240 240 235 235 236 236 237 240 242 244 247 248 250 251 254 255 255 255 255 259 264 267 270 275
237 240 241 239 238 237 237 239 243 246 245 248 249 248 247 247 247 246 246 244 241 236 233 233 234 236 237 239 241 244 248 249 251 253 255 255 255 256 257 264 267 271 276 277
240 243 243 242 241 239 241 245 247 247 246 245 249 251 247 251 251 248 247 245 240 238 237 235 234 237 239 242 243 246 249 250 252 254 255 255 256 257 261 264 268 271 272 274
245 246 247 245 245 242 244 245 248 247 246 246 248 249 247 250 253 250 247 245 242 240 239 239 239 241 242 245 247 249 251 252 255 255 255 254 256 259 263 265 267 270 271 274
244 244 244 245 248 248 247 247 247 247 247 248 248 246 249 248 250 248 247 248 245 242 244 245 244 246 246 247 249 251 251 253 254 254 254 255 258 261 264 265 266 268 272 275
246 246 245 245 249 251 249 247 247 247 248 245 242 244 250 250 252 251 251 251 249 248 250 250 250 251 248 249 250 250 251 253 254 255 256 258 261 264 265 266 268 270 274 276
246 247 247 247 248 251 251 250 249 250 253 251 245 243 248 253 254 253 253 251 250 249 251 252 252 252 252 252 252 250 252 256 257 258 258 259 263 266 267 269 271 272 273 275
244 246 248 247 247 250 250 253 251 249 253 254 252 247 249 254 256 251 250 249 252 253 254 256 256 255 255 255 256 255 256 258 260 261 262 262 265 267 267 269 271 272 273 274
245 245 246 247 248 250 250 251 252 251 250 251 251 251 254 258 257 254 254 255 257 257 259 260 258 257 258 256 260 259 259 260 261 262 263 265 269 270 272 271 272 274 274 275
246 245 245 246 247 248 247 250 251 251 250 250 251 249 251 254 254 255 258 259 259 259 260 262 263 259 260 260 263 263 262 262 263 263 265 268 269 271 274 274 274 275 276 276
246 246 246 245 247 249 248 248 249 251 249 248 250 250 253 254 256 259 260 260 260 261 262 263 262 260 260 261 263 265 265 266 265 265 267 268 269 271 273 274 275 276 277 277
246 246 247 247 249 250 251 250 250 251 252 249 250 251 254 256 258 260 262 262 264 264 262 261 260 261 260 259 262 265 266 268 266 266 267 268 270 271 272 273 276 277 277 278
247 246 247 248 247 249 251 250 250 251 251 251 251 252 255 257 260 261 263 266 266 267 264 261 259 260 259 260 262 265 265 266 266 267 268 269 270 270 270 272 275 277 279 280
247 246 246 247 248 249 250 251 250 251 252 251 251 252 254 257 260 262 264 267 268 269 267 263 262 263 261 262 262 264 265 264 265 268 269 270 270 270 271 272 275 278 279 281
248 245 247 248 248 247 250 251 250 250 250 252 252 253 255 257 260 263 265 265 266 267 266 263 262 263 265 265 265 265 264 265 267 269 271 270 270 271 271 274 277 279 281 282
247 248 247 247 246 246 247 249 249 248 249 249 252 252 253 255 259 262 263 264 265 266 266 266 265 266 266 266 265 266 268 269 270 272 272 273 274 273 273 276 278 280 282 284
249 250 249 245 243 244 245 246 247 248 249 249 251 253 254 257 260 262 263 265 265 265 266 267 266 267 268 269 269 269 270 271 273 274 274 275 276 276 277 279 280 282 283 285
Height
5851 5853 5854 5855 5856 5858 5860 5861 5863 5864 5865 5867 5868 5869 5870 5872 5873 5875 5876 5878 5879 5880 5881 5882 5884 5885 5886 5886 5887 5889 5890 5890 5891 5891 5891 5891 5891 5891 5891 5891 5890 5890 5889 5889
5851 5851 5852 5854 5855 5856 5858 5859 5861 5862 5863 5865 5866 5867 5868 5869 5871 5872 5874 5875 5876 5878 5879 5880 5881 5882 5883 5884 5886 5887 5888 5888 5889 5889 5889 5889 5889 5889 5889 5889 5889 5889 5888 5887
5849 5851 5851 5853 5854 5855 5856 5858 5859 5860 5862 5863 5865 5866 5867 5867 5868 5870 5871 5872 5874 5875 5877 5878 5879 5880 5881 5882 5883 5884 5885 5886 5886 5887 5887 5887 5887 5887 5887 5887 5887 5887 5887 5886
5848 5849 5850 5851 5853 5854 5855 5856 5857 5858 5860 5861 5863 5864 5865 5865 5866 5867 5868 5869 5871 5872 5874 5875 5876 5877 5878 5880 5881 5882 5883 5883 5884 5884 5885 5885 5885 5886 5886 5885 5885 5885 5885 5885
5847 5848 5849 5850 5851 5852 5853 5854 5856 5857 5858 5859 5860 5861 5863 5862 5863 5864 5865 5866 5868 5869 5871 5872 5873 5875 5876 5877 5878 5879 5880 5881 5881 5882 5882 5883 5883 5883 5883 5883 5883 5883 5883 5883
5846 5847 5848 5849 5850 5850 5851 5853 5854 5855 5856 5858 5858 5859 5861 5860 5861 5861 5862 5863 5865 5866 5867 5869 5870 5872 5873 5874 5875 5876 5877 5878 5879 5879 5880 5880 5881 5881 5881 5881 5881 5881 5881 5880
5845 5846 5847 5847 5849 5850 5851 5852 5853 5854 5854 5855 5856 5856 5858 5858 5858 5859 5860 5861 5862 5863 5864 5866 5867 5869 5870 5872 5873 5874 5875 5876 5876 5877 5877 5878 5878 5878 5878 5878 5878 5878 5878 5878
5844 5845 5846 5846 5847 5848 5849 5851 5852 5853 5853 5853 5853 5854 5855 5855 5855 5856 5857 5858 5859 5860 5861 5862 5864 5866 5867 5869 5870 5871 5872 5873 5873 5874 5875 5875 5875 5875 5875 5876 5876 5876 5875 5875
5843 5844 5844 5845 5845 5846 5847 5848 5850 5850 5850 5851 5851 5852 5853 5852 5853 5853 5854 5855 5856 5857 5858 5860 5861 5863 5864 5866 5867 5868 5869 5870 5871 5871 5872 5872 5872 5872 5872 5873 5873 5873 5872 5872
5841 5842 5843 5843 5844 5845 5846 5846 5847 5848 5848 5849 5850 5850 5851 5850 5851 5851 5852 5853 5853 5854 5856 5857 5859 5860 5861 5863 5864 5865 5866 5867 5868 5868 5869 5869 5869 5869 5870 5870 5870 5870 5869 5869
5839 5840 5841 5842 5842 5843 5844 5844 5845 5845 5846 5847 5847 5850 5848 5848 5848 5849 5849 5850 5851 5852 5853 5854 5856 5857 5858 5860 5861 5862 5863 5864 5864 5865 5865 5866 5866 5866 5867 5867 5867 5866 5866 5866
5836 5837 5838 5839 5840 5840 5841 5842 5843 5844 5844 5844 5845 5849 5846 5845 5846 5846 5847 5847 5848 5849 5850 5852 5853 5854 5855 5857 5858 5859 5860 5861 5861 5862 5862 5862 5863 5863 5863 5863 5863 5863 5863 5862
5834 5835 5836 5837 5839 5839 5838 5839 5840 5840 5841 5841 5842 5846 5843 5842 5843 5843 5844 5844 5845 5846 5848 5849 5850 5851 5852 5854 5855 5856 5856 5857 5858 5858 5858 5859 5859 5859 5859 5859 5859 5859 5859 5858
5831 5832 5834 5835 5835 5835 5836 5836 5837 5837 5838 5839 5840 5841 5840 5840 5840 5841 5841 5842 5842 5843 5845 5846 5847 5848 5849 5850 5851 5852 5853 5853 5854 5854 5855 5855 5855 5855 5855 5855 5855 5855 5855 5854
5827 5828 5829 5830 5831 5831 5832 5833 5834 5834 5835 5836 5837 5837 5838 5838 5838 5838 5838 5839 5840 5840 5841 5842 5843 5844 5845 5846 5847 5848 5849 5849 5850 5850 5851 5851 5851 5851 5851 5851 5851 5851 5850 5850
5822 5824 5825 5826 5827 5827 5828 5829 5830 5830 5831 5832 5833 5834 5834 5834 5835 5835 5835 5836 5836 5837 5838 5839 5840 5840 5841 5842 5843 5844 5844 5845 5846 5846 5846 5847 5847 5847 5847 5847 5846 5846 5846 5845
5818 5819 5821 5822 5823 5823 5825 5826 5826 5827 5828 5829 5830 5832 5831 5831 5831 5832 5832 5833 5833 5834 5835 5835 5836 5837 5837 5838 5839 5840 5840 5841 5841 5842 5842 5842 5842 5842 5842 5842 5841 5841 5841 5840
5813 5814 5816 5817 5819 5819 5824 5822 5823 5824 5824 5825 5826 5827 5827 5828 5828 5828 5829 5830 5830 5831 5831 5831 5832 5833 5833 5834 5835 5835 5836 5836 5837 5837 5837 5838 5838 5837 5837 5837 5836 5836 5835 5834
5808 5809 5811 5812 5813 5815 5818 5818 5819 5820 5821 5822 5823 5823 5824 5824 5824 5825 5825 5826 5826 5827 5827 5828 5828 5829 5829 5830 5830 5831 5831 5832 5832 5832 5833 5833 5833 5832 5832 5831 5831 5830 5829 5828
5802 5804 5806 5806 5808 5809 5813 5814 5814 5816 5817 5818 5819 5820 5820 5820 5821 5822 5822 5822 5822 5822 5823 5823 5824 5824 5825 5825 5826 5826 5827 5827 5827 5827 5827 5827 5827 5827 5826 5826 5825 5824 5824 5823
5797 5798 5799 5800 5801 5803 5806 5808 5810 5812 5813 5814 5814 5815 5816 5816 5817 5818 5817 5818 5818 5818 5818 5819 5819 5819 5820 5821 5821 5821 5822 5822 5822 5822 5822 5822 5822 5821 5821 5820 5820 5819 5818 5817
5790 5792 5793 5794 5795 5799 5800 5802 5804 5806 5807 5808 5809 5810 5811 5812 5812 5812 5813 5813 5813 5813 5813 5813 5814 5814 5815 5815 5816 5816 5816 5816 5816 5816 5816 5816 5816 5816 5815 5815 5814 5813 5812 5811
5783 5786 5787 5789 5792 5793 5794 5795 5797 5799 5801 5802 5803 5804 5805 5806 5807 5807 5808 5808 5808 5808 5808 5808 5809 5809 5809 5810 5810 5811 5811 5811 5811 5811 5810 5810 5810 5809 5809 5808 5808 5807 5806 5805
5776 5778 5779 5781 5783 5785 5787 5788 5790 5792 5794 5796 5797 5798 5800 5801 5801 5802 5802 5802 5802 5802 5802 5803 5803 5803 5804 5804 5804 5804 5805 5805 5805 5804 5804 5803 5803 5803 5802 5802 5801 5800 5799 5798
5768 5770 5771 5773 5776 5778 5780 5782 5784 5786 5788 5789 5791 5792 5793 5794 5795 5796 5796 5796 5797 5797 5797 5797 5797 5797 5798 5798 5798 5798 5798 5798 5798 5798 5797 5797 5796 5796 5795 5795 5794 5793 5792 5790
5760 5761 5763 5765 5768 5770 5773 5775 5777 5779 5781 5783 5784 5786 5787 5788 5789 5789 5790 5790 5790 5790 5791 5791 5791 5791 5791 5791 5791 5791 5791 5791 5791 5791 5790 5790 5789 5789 5788 5787 5786 5784 5783 5782